Weather History for Sedalia, MO

Change the Weather History Date:

Friday, January 31, 2014

  Actual Average Record
Temperature  
Mean Temperature 28 °F 33 °F  
Max Temperature 32 °F 42 °F 65 °F (2012)
Min Temperature 24 °F 24 °F -13 °F (1977)
Degree Days  
Heating Degree Days 37 32  
Month to date heating degree days 1177 1037  
Since 1 July heating degree days 3151 2815  
Cooling Degree Days 0 0  
Month to date cooling degree days 0 0  
Year to date cooling degree days 0 0  
Moisture  
Dew Point 20 °F    
Average Humidity 74    
Maximum Humidity 92    
Minimum Humidity 55    
Precipitation  
Precipitation T in 0.06 in 1.39 in (1975)
Month to date precipitation 0.22 1.67  
Year to date precipitation 0.22 1.67  
Sea Level Pressure  
Sea Level Pressure 30.01 in    
Wind  
Wind Speed 11 mph (NE)    
Max Wind Speed 16 mph    
Max Gust Speed 23 mph    
Visibility 5 miles    
Events Rain    
T = Trace of Precipitation, MM = Missing Value Source: NWS Daily Summary

Daily Weather History Graph

Daily Weather History Graph

Search for Another Location

Airport:

Trip Planner

Search our weather history database for the weather conditions in past years. The results will help you decide how hot, cold, wet, or windy it might be!

Date:

Astronomy

Jan. 31, 2014 Rise Set
Actual Time 7:19 AM CST 5:33 PM CST
Civil Twilight 6:51 AM CST 6:01 PM CST
Nautical Twilight 6:19 AM CST 6:33 PM CST
Astronomical Twilight 5:48 AM CST 7:04 PM CST
Moon 7:30 AM CST (1/31) 6:56 PM CST (1/31)
Length of Visible Light 11h 10m
Length of Day
10h 14m
New Moon, 1% of the Moon is Illuminated
Jan 31
New Moon
Feb 6
First Quarter
Feb 14
Full
Feb 22
Last Quarter
Mar 1
New

Hourly Weather History & Observations

Time (CST) Temp. Windchill Dew Point Humidity Pressure Visibility Wind Dir Wind Speed Gust Speed Precip Events Conditions
12:53 AM 30.9 °F 22.2 °F 19.0 °F 61% 30.02 in 10.0 mi North 10.4 mph - N/A   Overcast
1:53 AM 30.0 °F 20.5 °F 18.0 °F 61% 30.04 in 10.0 mi NNE 11.5 mph - N/A   Overcast
2:53 AM 28.9 °F 18.6 °F 18.0 °F 64% 30.04 in 10.0 mi NNE 12.7 mph - N/A   Overcast
3:53 AM 28.0 °F 19.3 °F 17.1 °F 63% 30.02 in 10.0 mi NNE 9.2 mph - N/A   Mostly Cloudy
4:53 AM 28.0 °F 20.8 °F 18.0 °F 66% 30.04 in 10.0 mi NE 6.9 mph - N/A   Overcast
5:53 AM 28.0 °F 18.6 °F 17.1 °F 63% 30.05 in 10.0 mi NE 10.4 mph - N/A   Overcast
6:53 AM 27.0 °F 15.6 °F 15.1 °F 61% 30.06 in 10.0 mi NE 13.8 mph - N/A   Overcast
7:53 AM 27.0 °F 17.3 °F 12.0 °F 53% 30.09 in 10.0 mi NE 10.4 mph - N/A   Scattered Clouds
8:53 AM 27.0 °F 16.1 °F 12.0 °F 53% 30.09 in 10.0 mi ENE 12.7 mph - N/A   Overcast
9:53 AM 26.1 °F 16.2 °F 15.1 °F 63% 30.10 in 10.0 mi ENE 10.4 mph - N/A   Overcast
10:53 AM 26.1 °F 16.2 °F 16.0 °F 66% 30.12 in 10.0 mi ENE 10.4 mph - N/A   Overcast
11:53 AM 26.1 °F 15.0 °F 16.0 °F 66% 30.09 in 10.0 mi ENE 12.7 mph - N/A   Overcast
12:53 PM 26.1 °F 14.5 °F 17.1 °F 69% 30.05 in 10.0 mi NE 13.8 mph - N/A   Overcast
1:28 PM 26.1 °F 15.6 °F 18.0 °F 71% 30.01 in 7.0 mi NE 11.5 mph - N/A   Overcast
1:53 PM 25.0 °F 14.8 °F 21.0 °F 85% 30.03 in 3.0 mi NE 10.4 mph - N/A   Overcast
2:00 PM 25.0 °F 14.8 °F 21.0 °F 85% 30.00 in 2.5 mi ENE 10.4 mph - N/A   Overcast
2:11 PM 25.0 °F 14.2 °F 21.9 °F 88% 29.99 in 1.8 mi ENE 11.5 mph - 0.00 in Rain Light Freezing Rain
2:22 PM 25.0 °F 12.6 °F 21.9 °F 88% 29.99 in 2.0 mi ENE 15.0 mph - 0.00 in Rain Light Freezing Rain
2:39 PM 25.0 °F 13.6 °F 21.9 °F 88% 29.99 in 2.0 mi NE 12.7 mph - 0.00 in Rain Light Freezing Rain
2:53 PM 25.0 °F 13.6 °F 21.9 °F 88% 30.02 in 2.0 mi NE 12.7 mph - 0.00 in   Overcast
2:56 PM 25.0 °F 14.2 °F 21.9 °F 88% 29.99 in 1.8 mi ENE 11.5 mph - N/A   Overcast
3:11 PM 25.0 °F 14.8 °F 21.9 °F 88% 29.98 in 2.0 mi NE 10.4 mph - N/A   Overcast
3:53 PM 25.0 °F 14.8 °F 21.9 °F 88% 30.01 in 2.5 mi NE 10.4 mph - N/A   Overcast
4:00 PM 25.0 °F 13.6 °F 21.9 °F 88% 29.98 in 2.5 mi ENE 12.7 mph - N/A   Overcast
4:36 PM 25.0 °F 15.5 °F 21.9 °F 88% 29.98 in 3.0 mi ENE 9.2 mph - N/A   Overcast
4:53 PM 24.1 °F 13.1 °F 21.9 °F 91% 30.02 in 2.5 mi ENE 11.5 mph - N/A   Overcast
5:06 PM 24.1 °F 13.7 °F 21.9 °F 91% 29.99 in 4.0 mi ENE 10.4 mph - N/A   Overcast
5:53 PM 24.1 °F 13.7 °F 21.9 °F 91% 30.02 in 5.0 mi ENE 10.4 mph - N/A   Overcast
6:53 PM 24.1 °F 14.4 °F 21.9 °F 91% 30.01 in 4.0 mi ENE 9.2 mph - N/A   Overcast
7:07 PM 24.1 °F 14.4 °F 21.9 °F 91% 29.97 in 3.0 mi ENE 9.2 mph - N/A   Overcast
7:53 PM 24.1 °F 14.4 °F 21.9 °F 91% 30.01 in 3.0 mi ENE 9.2 mph - N/A   Overcast
8:20 PM 24.1 °F 14.4 °F 21.9 °F 91% 29.97 in 2.5 mi ENE 9.2 mph - N/A   Overcast
8:53 PM 24.1 °F 15.2 °F 21.9 °F 91% 29.99 in 2.5 mi East 8.1 mph - N/A   Overcast
9:53 PM 24.1 °F 14.4 °F 21.9 °F 91% 29.98 in 2.0 mi ENE 9.2 mph - N/A   Overcast
10:34 PM 24.1 °F 15.2 °F 23.0 °F 96% 29.94 in 1.8 mi ENE 8.1 mph - N/A   Overcast
10:53 PM 24.1 °F 14.4 °F 23.0 °F 96% 29.96 in 1.5 mi ENE 9.2 mph - N/A   Overcast
11:09 PM 24.1 °F 12.5 °F 23.0 °F 96% 29.91 in 1.2 mi ENE 12.7 mph - N/A   Overcast
11:35 PM 25.0 °F 16.3 °F 23.0 °F 92% 29.91 in 1.0 mi ENE 8.1 mph - N/A   Overcast
11:53 PM 25.0 °F 18.1 °F 23.0 °F 92% 29.95 in 0.8 mi NE 5.8 mph - N/A   Overcast